| time (UTC) | temp F | wind direction | speed MPH | gust MPH | rain 1hr in | rain 24hr in | rain mn in | humidity % | barometer mb |
| 20260502130502 | 65 | 300 | 0.0 | 4.0 | 0.00 | 5.01 | 4.56 | 80 | 1009.9 |
| 20260502130203 | 65 | 283 | 1.0 | 4.0 | 0.00 | 5.01 | 4.56 | 92 | 1009.7 |
| 20260502123802 | 64 | 250 | 0.0 | 3.0 | 0.00 | 5.01 | 4.56 | 99 | 1010.0 |
| 20260502123501 | 64 | 258 | 0.0 | 3.0 | 0.00 | 5.01 | 4.56 | 99 | 1010.0 |
| 20260502123201 | 64 | 262 | 0.0 | 3.0 | 0.00 | 5.01 | 4.56 | 99 | 1010.2 |
| 20260502122902 | 64 | 242 | 0.0 | 3.0 | 0.00 | 5.01 | 4.56 | 99 | 1010.0 |
| 20260502122601 | 64 | 207 | 0.0 | 3.0 | 0.00 | 5.01 | 4.56 | 99 | 1010.1 |
| 20260502122301 | 64 | 188 | 0.0 | 3.0 | 0.00 | 5.01 | 4.56 | 99 | 1009.9 |
| 20260502122002 | 64 | 190 | 0.0 | 3.0 | 0.00 | 5.01 | 4.56 | 99 | 1009.7 |
| 20260502121700 | 64 | 198 | 0.0 | 3.0 | 0.00 | 5.01 | 4.56 | 99 | 1009.7 |
| 20260502121400 | 64 | 196 | 0.0 | 3.0 | 0.00 | 5.01 | 4.56 | 99 | 1009.6 |
| 20260502121101 | 64 | 201 | 0.0 | 2.0 | 0.00 | 5.01 | 4.56 | 99 | 1009.7 |
| 20260502120801 | 64 | 213 | 0.0 | 3.0 | 0.00 | 5.01 | 4.56 | 99 | 1009.5 |
| 20260502120501 | 64 | 223 | 0.0 | 4.0 | 0.00 | 5.01 | 4.56 | 99 | 1009.4 |
| 20260502120159 | 64 | 234 | 0.0 | 4.0 | 0.00 | 5.01 | 4.56 | 99 | 1009.2 |
| 20260502115901 | 64 | 244 | 0.0 | 4.0 | 0.00 | 5.01 | 4.56 | 99 | 1009.2 |
| 20260502115600 | 64 | 233 | 1.0 | 4.0 | 0.00 | 5.01 | 4.56 | 99 | 1009.2 |
| 20260502115300 | 64 | 183 | 0.0 | 3.0 | 0.00 | 5.01 | 4.56 | 99 | 1009.0 |
| 20260502114959 | 64 | 164 | 0.0 | 3.0 | 0.00 | 5.01 | 4.56 | 99 | 1008.9 |
| 20260502114701 | 64 | 166 | 1.0 | 3.0 | 0.00 | 5.01 | 4.56 | 99 | 1008.7 |
| 20260502114359 | 63 | 152 | 0.0 | 4.0 | 0.00 | 5.01 | 4.56 | 99 | 1008.7 |
| 20260502114100 | 63 | 144 | 0.0 | 4.0 | 0.00 | 5.01 | 4.56 | 99 | 1008.6 |
| 20260502113759 | 63 | 47 | 0.0 | 5.0 | 0.00 | 5.01 | 4.56 | 99 | 1008.5 |
| 20260502113458 | 63 | 14 | 1.0 | 6.0 | 0.00 | 5.01 | 4.56 | 99 | 1008.2 |
| 20260502113200 | 63 | 218 | 1.0 | 7.0 | 0.00 | 5.01 | 4.56 | 99 | 1008.2 |
| 20260502112900 | 63 | 227 | 0.0 | 7.0 | 0.00 | 5.01 | 4.56 | 99 | 1008.2 |
| 20260502112559 | 63 | 266 | 2.0 | 7.0 | 0.00 | 5.01 | 4.56 | 99 | 1008.2 |
| 20260502112258 | 63 | 341 | 3.0 | 7.0 | 0.00 | 5.01 | 4.56 | 99 | 1008.2 |
| 20260502111958 | 63 | 346 | 1.0 | 7.0 | 0.00 | 5.01 | 4.56 | 99 | 1008.2 |
| 20260502111657 | 63 | 356 | 0.0 | 7.0 | 0.00 | 5.01 | 4.56 | 99 | 1008.1 |
| 20260502111357 | 63 | 349 | 2.0 | 7.0 | 0.00 | 5.01 | 4.56 | 99 | 1008.0 |
| 20260502111058 | 63 | 354 | 3.0 | 7.0 | 0.00 | 5.01 | 4.56 | 99 | 1007.7 |
| 20260502110757 | 63 | 295 | 1.0 | 6.0 | 0.00 | 5.01 | 4.56 | 99 | 1007.7 |
| 20260502110458 | 63 | 317 | 1.0 | 6.0 | 0.00 | 5.01 | 4.56 | 99 | 1007.6 |
| 20260502110157 | 63 | 258 | 2.0 | 5.0 | 0.00 | 5.01 | 4.56 | 99 | 1007.5 |
| 20260502105858 | 63 | 341 | 0.0 | 5.0 | 0.00 | 5.01 | 4.56 | 99 | 1007.4 |
| 20260502105557 | 63 | 319 | 0.0 | 5.0 | 0.00 | 5.01 | 4.56 | 99 | 1007.5 |
| 20260502105257 | 63 | 288 | 0.0 | 5.0 | 0.00 | 5.01 | 4.56 | 99 | 1007.4 |
| 20260502104958 | 63 | 189 | 1.0 | 5.0 | 0.00 | 5.01 | 4.56 | 99 | 1007.4 |
| 20260502104657 | 63 | 147 | 2.0 | 5.0 | 0.00 | 5.01 | 4.56 | 99 | 1007.2 |
| 20260502104356 | 63 | 85 | 0.0 | 6.0 | 0.00 | 5.01 | 4.56 | 99 | 1007.2 |
| 20260502104058 | 63 | 113 | 1.0 | 6.0 | 0.00 | 5.01 | 4.56 | 99 | 1007.2 |
| 20260502103757 | 63 | 5 | 0.0 | 6.0 | 0.00 | 5.01 | 4.56 | 99 | 1007.0 |
| 20260502103456 | 63 | 268 | 0.0 | 6.0 | 0.00 | 5.01 | 4.56 | 99 | 1006.7 |
| 20260502103157 | 63 | 294 | 0.0 | 6.0 | 0.00 | 5.01 | 4.56 | 99 | 1006.7 |
| 20260502102857 | 63 | 305 | 0.0 | 7.0 | 0.00 | 5.01 | 4.56 | 99 | 1006.7 |
| 20260502102557 | 63 | 316 | 0.0 | 7.0 | 0.00 | 5.01 | 4.56 | 99 | 1006.7 |
| 20260502102256 | 63 | 332 | 0.0 | 7.0 | 0.00 | 5.01 | 4.56 | 99 | 1006.7 |
| 20260502101957 | 63 | 331 | 3.0 | 11.0 | 0.00 | 5.01 | 4.56 | 99 | 1006.7 |
| 20260502101655 | 63 | 318 | 0.0 | 11.0 | 0.00 | 5.01 | 4.56 | 99 | 1006.5 |
| 20260502101356 | 63 | 323 | 1.0 | 11.0 | 0.00 | 5.01 | 4.56 | 99 | 1006.4 |
| 20260502101056 | 63 | 327 | 3.0 | 11.0 | 0.00 | 5.01 | 4.56 | 99 | 1006.4 |
| 20260502100755 | 63 | 348 | 0.0 | 6.0 | 0.00 | 5.01 | 4.56 | 99 | 1006.2 |
| 20260502100456 | 63 | 340 | 0.0 | 7.0 | 0.00 | 5.01 | 4.56 | 99 | 1006.4 |
| 20260502100155 | 63 | 329 | 2.0 | 11.0 | 0.00 | 5.01 | 4.56 | 99 | 1006.4 |
| 20260502091353 | 63 | 345 | 2.0 | 9.0 | 0.00 | 5.01 | 4.56 | 99 | 1005.6 |
| 20260502091055 | 62 | 315 | 2.0 | 9.0 | 0.02 | 5.01 | 4.56 | 99 | 1006.1 |
| 20260502090754 | 62 | 299 | 2.0 | 7.0 | 0.02 | 5.01 | 4.56 | 99 | 1006.5 |
| 20260502090453 | 62 | 284 | 0.0 | 6.0 | 0.02 | 5.01 | 4.56 | 99 | 1006.2 |
| 20260502090154 | 62 | 293 | 0.0 | 6.0 | 0.02 | 5.01 | 4.56 | 99 | 1005.5 |
| 20260502071350 | 61 | 46 | 8.0 | 17.0 | 0.42 | 4.83 | 4.39 | 99 | 1007.1 |
| 20260502071050 | 61 | 52 | 6.0 | 13.0 | 0.42 | 4.81 | 4.36 | 99 | 1006.9 |
| 20260502070749 | 61 | 34 | 5.0 | 9.0 | 0.44 | 4.78 | 4.34 | 99 | 1007.0 |
| 20260502070450 | 61 | 42 | 3.0 | 11.0 | 0.47 | 4.76 | 4.31 | 99 | 1007.2 |
| 20260502070149 | 61 | 40 | 4.0 | 11.0 | 0.52 | 4.73 | 4.29 | 99 | 1007.6 |
| 20260502065851 | 61 | 32 | 5.0 | 11.0 | 0.54 | 4.71 | 4.26 | 99 | 1007.6 |
| 20260502065550 | 61 | 17 | 5.0 | 12.0 | 0.57 | 4.71 | 4.26 | 99 | 1007.7 |
| 20260502065249 | 61 | 5 | 6.0 | 12.0 | 0.54 | 4.68 | 4.24 | 99 | 1007.6 |
| 20260502064950 | 61 | 356 | 3.0 | 12.0 | 0.57 | 4.68 | 4.24 | 99 | 1007.7 |
| 20260502064650 | 61 | 13 | 9.0 | 12.0 | 0.57 | 4.66 | 4.21 | 99 | 1007.6 |
| 20260502064349 | 61 | 40 | 3.0 | 12.0 | 0.57 | 4.63 | 4.19 | 99 | 1007.7 |
| 20260502064049 | 61 | 42 | 1.0 | 11.0 | 0.59 | 4.61 | 4.16 | 99 | 1007.9 |
| 20260502063748 | 61 | 37 | 0.0 | 11.0 | 0.59 | 4.61 | 4.16 | 99 | 1008.0 |
| 20260502063448 | 61 | 35 | 6.0 | 11.0 | 0.57 | 4.58 | 4.14 | 99 | 1008.1 |
| 20260502063149 | 61 | 21 | 3.0 | 7.0 | 0.57 | 4.56 | 4.11 | 99 | 1007.9 |
| 20260502062848 | 61 | 42 | 0.0 | 6.0 | 0.54 | 4.51 | 4.06 | 99 | 1008.2 |
| 20260502062549 | 61 | 41 | 0.0 | 6.0 | 0.57 | 4.51 | 4.06 | 99 | 1008.2 |
| 20260502062249 | 61 | 44 | 3.0 | 6.0 | 0.57 | 4.48 | 4.04 | 99 | 1008.2 |
| 20260502061948 | 61 | 57 | 2.0 | 6.0 | 0.54 | 4.46 | 4.01 | 99 | 1008.2 |
| 20260502061649 | 61 | 92 | 4.0 | 6.0 | 0.54 | 4.43 | 3.99 | 99 | 1008.6 |
| 20260502061349 | 61 | 156 | 3.0 | 6.0 | 0.52 | 4.41 | 3.96 | 99 | 1008.6 |
| 20260502061048 | 61 | 175 | 0.0 | 6.0 | 0.52 | 4.39 | 3.94 | 99 | 1009.0 |
| 20260502060747 | 61 | 66 | 1.0 | 9.0 | 0.47 | 4.31 | 3.86 | 99 | 1008.9 |
| 20260502060448 | 61 | 45 | 0.0 | 9.0 | 0.42 | 4.24 | 3.79 | 99 | 1008.9 |
| 20260502060148 | 61 | 49 | 2.0 | 9.0 | 0.39 | 4.21 | 3.77 | 99 | 1008.7 |
| 20260502055848 | 61 | 351 | 3.0 | 6.0 | 0.39 | 4.16 | 3.72 | 99 | 1008.5 |
| 20260502055547 | 61 | 38 | 1.0 | 6.0 | 0.42 | 4.14 | 3.69 | 99 | 1008.4 |
| 20260502055247 | 61 | 13 | 2.0 | 6.0 | 0.52 | 4.14 | 3.69 | 99 | 1008.5 |
| 20260502054948 | 61 | 59 | 0.0 | 6.0 | 0.54 | 4.11 | 3.67 | 99 | 1008.2 |
| 20260502054647 | 61 | 49 | 1.0 | 6.0 | 0.64 | 4.09 | 3.64 | 99 | 1008.1 |
| 20260502054347 | 61 | 83 | 1.0 | 4.0 | 0.71 | 4.06 | 3.62 | 99 | 1008.2 |
| 20260502054046 | 61 | 97 | 0.0 | 4.0 | 0.76 | 4.01 | 3.57 | 99 | 1008.5 |
| 20260502053747 | 61 | 126 | 0.0 | 4.0 | 0.99 | 4.01 | 3.57 | 99 | 1008.6 |
| 20260502053447 | 61 | 139 | 1.0 | 4.0 | 1.01 | 4.01 | 3.57 | 99 | 1008.4 |
| 20260502053146 | 61 | 140 | 1.0 | 3.0 | 1.06 | 3.99 | 3.54 | 99 | 1008.5 |
| 20260502052847 | 61 | 134 | 0.0 | 3.0 | 1.09 | 3.96 | 3.52 | 99 | 1008.7 |
| 20260502052546 | 61 | 141 | 1.0 | 3.0 | 1.11 | 3.94 | 3.49 | 99 | 1008.6 |
| 20260502052247 | 61 | 146 | 1.0 | 3.0 | 1.14 | 3.91 | 3.47 | 99 | 1008.6 |
| 20260502051946 | 61 | 185 | 0.0 | 3.0 | 1.16 | 3.91 | 3.47 | 99 | 1008.7 |
| 20260502051647 | 61 | 152 | 1.0 | 4.0 | 1.16 | 3.89 | 3.44 | 99 | 1008.9 |
| 20260502051346 | 61 | 132 | 0.0 | 4.0 | 1.19 | 3.89 | 3.44 | 99 | 1008.9 |
| 20260502045324 | 61 | 128 | 0.0 | 6.0 | 1.51 | 3.67 | 3.22 | 99 | 1008.7 |
| 20260502045023 | 61 | 183 | 1.0 | 6.0 | 1.51 | 3.57 | 3.12 | 99 | 1008.5 |
| 20260502044725 | 61 | 144 | 1.0 | 9.0 | 1.48 | 3.47 | 3.02 | 99 | 1008.9 |
| 20260502044424 | 61 | 159 | 2.0 | 9.0 | 1.46 | 3.34 | 2.90 | 99 | 1009.5 |
| 20260502044125 | 60 | 133 | 3.0 | 9.0 | 1.46 | 3.24 | 2.80 | 99 | 1009.1 |
| 20260502043824 | 61 | 141 | 3.0 | 12.0 | 1.33 | 3.07 | 2.62 | 99 | 1008.2 |
| 20260502043523 | 62 | 137 | 5.0 | 12.0 | 1.31 | 3.00 | 2.55 | 99 | 1008.7 |
| 20260502043224 | 61 | 135 | 4.0 | 12.0 | 1.26 | 2.92 | 2.48 | 99 | 1008.6 |
| 20260502042923 | 61 | 176 | 6.0 | 9.0 | 1.31 | 2.90 | 2.45 | 99 | 1008.4 |
| 20260502042625 | 62 | 187 | 3.0 | 10.0 | 1.31 | 2.82 | 2.38 | 99 | 1008.2 |
| 20260502042324 | 60 | 71 | 2.0 | 10.0 | 1.43 | 2.77 | 2.33 | 99 | 1008.1 |
| 20260502042024 | 62 | 66 | 2.0 | 10.0 | 1.53 | 2.75 | 2.30 | 99 | 1007.7 |
| 20260502041722 | 63 | 68 | 4.0 | 10.0 | 1.56 | 2.72 | 2.28 | 99 | 1007.6 |
| 20260502041422 | 60 | 92 | 2.0 | 10.0 | 1.61 | 2.72 | 2.28 | 99 | 1007.7 |
| 20260502041123 | 64 | 82 | 3.0 | 10.0 | 1.58 | 2.67 | 2.23 | 99 | 1007.7 |
| 20260502040823 | 62 | 52 | 3.0 | 10.0 | 1.68 | 2.62 | 2.18 | 99 | 1007.7 |
| 20260502040546 | 61 | 38 | 6.0 | 10.0 | 1.73 | 2.57 | 2.13 | 99 | 1007.7 |
| 20260502040248 | 62 | 44 | 1.0 | 10.0 | 1.81 | 2.50 | 2.05 | 99 | 1008.0 |
| 20260502035947 | 63 | 81 | 7.0 | 10.0 | 1.93 | 2.38 | 1.93 | 99 | 1008.1 |
| 20260502035647 | 60 | 131 | 3.0 | 10.0 | 1.93 | 2.25 | 1.81 | 100 | 1008.4 |
| 20260502035346 | 62 | 163 | 3.0 | 10.0 | 1.86 | 2.15 | 1.71 | 93 | 1008.2 |
| 20260502035047 | 62 | 183 | 1.0 | 9.0 | 1.76 | 2.05 | 1.61 | 89 | 1008.0 |
| 20260502034745 | 63 | 140 | 6.0 | 9.0 | 1.71 | 1.98 | 1.53 | 87 | 1007.7 |
| 20260502034446 | 61 | 108 | 5.0 | 11.0 | 1.56 | 1.83 | 1.38 | 85 | 1007.7 |
| 20260502034147 | 61 | 99 | 0.0 | 12.0 | 1.53 | 1.78 | 1.33 | 82 | 1008.1 |
| 20260502033846 | 61 | 118 | 3.0 | 14.0 | 1.53 | 1.73 | 1.28 | 79 | 1007.9 |
| 20260502033545 | 62 | 129 | 7.0 | 14.0 | 1.51 | 1.68 | 1.24 | 76 | 1007.7 |
| 20260502033245 | 61 | 135 | 6.0 | 14.0 | 1.46 | 1.63 | 1.19 | 71 | 1008.0 |
| 20260502032946 | 61 | 145 | 9.0 | 14.0 | 1.43 | 1.58 | 1.14 | 65 | 1007.9 |
| 20260502032645 | 61 | 129 | 7.0 | 12.0 | 1.33 | 1.48 | 1.04 | 58 | 1008.2 |
| 20260502032345 | 61 | 95 | 3.0 | 12.0 | 1.19 | 1.33 | 0.89 | 51 | 1008.4 |
| 20260502032046 | 61 | 88 | 9.0 | 12.0 | 1.06 | 1.21 | 0.76 | 43 | 1008.2 |
| 20260502031746 | 61 | 106 | 0.0 | 12.0 | 1.01 | 1.16 | 0.71 | 37 | 1009.2 |
| 20260502031446 | 62 | 148 | 4.0 | 17.0 | 0.96 | 1.11 | 0.66 | 32 | 1008.5 |
| 20260502031145 | 62 | 169 | 6.0 | 17.0 | 0.89 | 1.04 | 0.59 | 24 | 1008.4 |
| 20260502030844 | 62 | 181 | 5.0 | 17.0 | 0.79 | 0.94 | 0.49 | 20 | 1008.7 |
| 20260502030546 | 62 | 195 | 9.0 | 21.0 | 0.64 | 0.79 | 0.34 | 17 | 1009.0 |
| 20260502030245 | 62 | 209 | 3.0 | 21.0 | 0.39 | 0.54 | 0.09 | 14 | 1009.0 |
| 20260502025944 | 63 | 187 | 3.0 | 21.0 | 0.24 | 0.39 | 0.39 | 14 | 1009.0 |
| 20260502025644 | 63 | 150 | 15.0 | 21.0 | 0.17 | 0.32 | 0.32 | 15 | 1008.2 |
| 20260502025345 | 63 | 130 | 8.0 | 15.0 | 0.14 | 0.29 | 0.29 | 14 | 1007.7 |
| 20260502025044 | 63 | 91 | 7.0 | 14.0 | 0.12 | 0.27 | 0.27 | 13 | 1008.0 |
| 20260502024745 | 63 | 101 | 6.0 | 14.0 | 0.12 | 0.27 | 0.27 | 11 | 1008.2 |
| 20260502024443 | 64 | 206 | 2.0 | 15.0 | 0.12 | 0.27 | 0.27 | 10 | 1008.1 |
| 20260502024145 | 64 | 186 | 4.0 | 15.0 | 0.09 | 0.24 | 0.24 | 10 | 1008.4 |
| 20260502023845 | 64 | 196 | 3.0 | 15.0 | 0.04 | 0.19 | 0.19 | 10 | 1008.2 |
| 20260502023544 | 64 | 196 | 6.0 | 15.0 | 0.02 | 0.17 | 0.17 | 10 | 1007.7 |
| 20260502023243 | 65 | 211 | 3.0 | 9.0 | 0.02 | 0.17 | 0.17 | 10 | 1008.0 |
| 20260502022944 | 65 | 202 | 6.0 | 9.0 | 0.00 | 0.14 | 0.14 | 10 | 1008.2 |
| 20260502022644 | 65 | 210 | 4.0 | 9.0 | 0.00 | 0.14 | 0.14 | 10 | 1008.5 |
| 20260502022344 | 65 | 201 | 2.0 | 9.0 | 0.00 | 0.14 | 0.14 | 10 | 1008.2 |
| 20260502022043 | 65 | 114 | 2.0 | 12.0 | 0.00 | 0.14 | 0.14 | 10 | 1008.0 |
| 20260502021744 | 65 | 70 | 0.0 | 12.0 | 0.00 | 0.14 | 0.14 | 10 | 1007.7 |
| 20260502021443 | 65 | 70 | 3.0 | 12.0 | 0.00 | 0.14 | 0.14 | 10 | 1007.1 |
| 20260502021142 | 65 | 97 | 6.0 | 12.0 | 0.00 | 0.14 | 0.14 | 10 | 1007.2 |
| 20260502020844 | 65 | 116 | 1.0 | 12.0 | 0.00 | 0.14 | 0.14 | 10 | 1007.0 |
| 20260502020542 | 65 | 152 | 5.0 | 19.0 | 0.00 | 0.14 | 0.14 | 10 | 1007.4 |
| 20260502020242 | 65 | 185 | 3.0 | 22.0 | 0.00 | 0.14 | 0.14 | 10 | 1007.2 |
| 20260502015942 | 66 | 192 | 2.0 | 22.0 | 0.00 | 0.14 | 0.14 | 10 | 1007.5 |
| 20260502015642 | 66 | 197 | 3.0 | 22.0 | 0.00 | 0.14 | 0.14 | 10 | 1007.9 |
| 20260502015342 | 66 | 185 | 5.0 | 18.0 | 0.00 | 0.14 | 0.14 | 10 | 1008.0 |
| 20260502015041 | 66 | 185 | 3.0 | 6.0 | 0.00 | 0.14 | 0.14 | 10 | 1007.5 |
| 20260502014743 | 66 | 217 | 3.0 | 6.0 | 0.00 | 0.14 | 0.14 | 10 | 1007.1 |
| 20260502014441 | 66 | 259 | 0.0 | 6.0 | 0.00 | 0.14 | 0.14 | 10 | 1006.7 |
| 20260502014143 | 66 | 355 | 0.0 | 6.0 | 0.00 | 0.14 | 0.14 | 10 | 1006.6 |
| 20260502013842 | 66 | 29 | 3.0 | 6.0 | 0.00 | 0.14 | 0.14 | 11 | 1006.7 |
| 20260502013541 | 66 | 39 | 0.0 | 7.0 | 0.00 | 0.14 | 0.14 | 11 | 1006.6 |
| 20260502013241 | 66 | 38 | 3.0 | 7.0 | 0.00 | 0.14 | 0.14 | 12 | 1006.7 |
| 20260502012942 | 66 | 49 | 3.0 | 7.0 | 0.00 | 0.14 | 0.14 | 13 | 1006.5 |
| 20260502012642 | 66 | 52 | 3.0 | 7.0 | 0.00 | 0.14 | 0.14 | 13 | 1006.5 |
| 20260502012341 | 66 | 70 | 1.0 | 9.0 | 0.00 | 0.14 | 0.14 | 14 | 1006.6 |
| 20260502012040 | 66 | 63 | 0.0 | 9.0 | 0.00 | 0.14 | 0.14 | 14 | 1006.7 |
| 20260502011741 | 66 | 63 | 3.0 | 9.0 | 0.00 | 0.14 | 0.14 | 15 | 1006.7 |
| 20260502011442 | 66 | 67 | 3.0 | 9.0 | 0.00 | 0.14 | 0.14 | 16 | 1006.7 |
| 20260502011141 | 66 | 57 | 2.0 | 9.0 | 0.00 | 0.14 | 0.14 | 17 | 1006.7 |
| 20260502010840 | 66 | 57 | 3.0 | 9.0 | 0.00 | 0.14 | 0.14 | 17 | 1006.7 |
| 20260502010541 | 65 | 41 | 2.0 | 9.0 | 0.00 | 0.14 | 0.14 | 18 | 1006.7 |
| 20260502010240 | 65 | 57 | 5.0 | 9.0 | 0.00 | 0.14 | 0.14 | 19 | 1006.9 |
| 20260502005940 | 65 | 37 | 2.0 | 6.0 | 0.00 | 0.14 | 0.14 | 20 | 1007.0 |
| 20260502005641 | 65 | 66 | 0.0 | 7.0 | 0.00 | 0.14 | 0.14 | 20 | 1006.7 |
| 20260502005341 | 65 | 33 | 1.0 | 7.0 | 0.00 | 0.14 | 0.14 | 20 | 1006.7 |
| 20260502005040 | 65 | 25 | 0.0 | 8.0 | 0.00 | 0.14 | 0.14 | 21 | 1006.7 |
| 20260502004739 | 65 | 29 | 2.0 | 8.0 | 0.00 | 0.14 | 0.14 | 21 | 1006.7 |
| 20260502004440 | 65 | 19 | 3.0 | 8.0 | 0.00 | 0.14 | 0.14 | 22 | 1006.9 |
| 20260502004139 | 65 | 17 | 4.0 | 8.0 | 0.00 | 0.14 | 0.14 | 22 | 1007.0 |
| 20260502003841 | 65 | 25 | 1.0 | 8.0 | 0.00 | 0.14 | 0.14 | 22 | 1007.0 |
| 20260502003539 | 65 | 32 | 2.0 | 6.0 | 0.00 | 0.14 | 0.14 | 21 | 1006.9 |
| 20260502003239 | 65 | 59 | 1.0 | 6.0 | 0.02 | 0.14 | 0.14 | 21 | 1006.9 |
| 20260502002940 | 65 | 98 | 3.0 | 6.0 | 0.04 | 0.14 | 0.14 | 21 | 1006.9 |
| 20260502002639 | 65 | 124 | 3.0 | 6.0 | 0.07 | 0.14 | 0.14 | 20 | 1007.1 |
| 20260502002339 | 65 | 129 | 1.0 | 6.0 | 0.12 | 0.14 | 0.14 | 19 | 1007.2 |
| 20260502002040 | 65 | 134 | 3.0 | 6.0 | 0.12 | 0.14 | 0.14 | 18 | 1007.2 |
| 20260502001739 | 65 | 131 | 2.0 | 4.0 | 0.14 | 0.14 | 0.14 | 17 | 1007.2 |
| 20260502001440 | 65 | 135 | 0.0 | 4.0 | 0.14 | 0.14 | 0.14 | 15 | 1007.2 |
| 20260502001138 | 65 | 135 | 1.0 | 4.0 | 0.14 | 0.14 | 0.14 | 14 | 1007.2 |
| 20260502000840 | 65 | 144 | 2.0 | 4.0 | 0.14 | 0.14 | 0.14 | 13 | 1007.4 |
| 20260502000540 | 65 | 146 | 1.0 | 4.0 | 0.14 | 0.14 | 0.14 | 11 | 1007.4 |
| 20260502000240 | 65 | 144 | 0.0 | 4.0 | 0.14 | 0.14 | 0.14 | 10 | 1007.2 |
| 20260501235938 | 65 | 137 | 1.0 | 5.0 | 0.14 | 0.14 | 0.14 | 10 | 1007.2 |
| 20260501235639 | 65 | 135 | 3.0 | 5.0 | 0.14 | 0.14 | 0.14 | 10 | 1007.2 |
| 20260501235339 | 65 | 138 | 2.0 | 5.0 | 0.14 | 0.14 | 0.14 | 10 | 1007.0 |
| 20260501235038 | 65 | 130 | 2.0 | 6.0 | 0.14 | 0.14 | 0.14 | 10 | 1007.1 |
| 20260501234739 | 65 | 115 | 2.0 | 6.0 | 0.14 | 0.14 | 0.14 | 10 | 1006.7 |
| 20260501234439 | 65 | 104 | 2.0 | 6.0 | 0.14 | 0.14 | 0.14 | 10 | 1006.7 |
| 20260501234138 | 65 | 94 | 3.0 | 6.0 | 0.14 | 0.14 | 0.14 | 10 | 1006.7 |
| 20260501233837 | 66 | 96 | 3.0 | 6.0 | 0.14 | 0.14 | 0.14 | 10 | 1006.7 |
| 20260501233539 | 66 | 125 | 3.0 | 5.0 | 0.14 | 0.14 | 0.14 | 10 | 1006.7 |
| 20260501233238 | 66 | 156 | 2.0 | 5.0 | 0.12 | 0.12 | 0.12 | 10 | 1007.1 |
| 20260501232939 | 66 | 146 | 0.0 | 5.0 | 0.07 | 0.07 | 0.07 | 10 | 1007.2 |
| 20260501232638 | 66 | 166 | 2.0 | 6.0 | 0.07 | 0.07 | 0.07 | 10 | 1007.2 |
| 20260501232337 | 66 | 171 | 0.0 | 6.0 | 0.02 | 0.02 | 0.02 | 10 | 1007.1 |
| 20260501232039 | 66 | 190 | 1.0 | 7.0 | 0.02 | 0.02 | 0.02 | 10 | 1007.1 |
| 20260501231738 | 67 | 168 | 2.0 | 7.0 | 0.00 | 0.00 | 0.00 | 10 | 1007.0 |
| 20260501231437 | 67 | 171 | 3.0 | 7.0 | 0.00 | 0.00 | 0.00 | 10 | 1007.1 |
| 20260501231138 | 67 | 171 | 3.0 | 7.0 | 0.00 | 0.00 | 0.00 | 10 | 1007.2 |
| 20260501230838 | 68 | 177 | 3.0 | 6.0 | 0.00 | 0.00 | 0.00 | 10 | 1007.1 |
| 20260501230538 | 68 | 173 | 0.0 | 6.0 | 0.00 | 0.00 | 0.00 | 10 | 1007.2 |
| 20260501230237 | 69 | 156 | 3.0 | 6.0 | 0.00 | 0.00 | 0.00 | 10 | 1007.1 |
| 20260501225937 | 69 | 149 | 0.0 | 6.0 | 0.00 | 0.00 | 0.00 | 10 | 1007.2 |
| 20260501225636 | 69 | 145 | 2.0 | 6.0 | 0.00 | 0.00 | 0.00 | 10 | 1007.0 |
| 20260501225337 | 69 | 157 | 3.0 | 8.0 | 0.00 | 0.00 | 0.00 | 10 | 1007.0 |
| 20260501225036 | 70 | 166 | 0.0 | 8.0 | 0.00 | 0.00 | 0.00 | 10 | 1007.0 |
| 20260501224738 | 70 | 168 | 1.0 | 8.0 | 0.00 | 0.00 | 0.00 | 10 | 1006.9 |
| 20260501224437 | 71 | 170 | 4.0 | 8.0 | 0.00 | 0.00 | 0.00 | 10 | 1006.7 |
| 20260501224136 | 71 | 162 | 2.0 | 6.0 | 0.00 | 0.00 | 0.00 | 10 | 1006.7 |
| 20260501223838 | 72 | 163 | 3.0 | 9.0 | 0.00 | 0.00 | 0.00 | 10 | 1006.7 |
| 20260501223537 | 72 | 160 | 2.0 | 9.0 | 0.00 | 0.00 | 0.00 | 10 | 1006.7 |
| 20260501223237 | 72 | 160 | 0.0 | 9.0 | 0.00 | 0.00 | 0.00 | 10 | 1006.7 |
| 20260501222936 | 73 | 155 | 0.0 | 9.0 | 0.00 | 0.00 | 0.00 | 10 | 1006.7 |
| 20260501222635 | 73 | 140 | 3.0 | 6.0 | 0.00 | 0.00 | 0.00 | 10 | 1006.7 |
| 20260501222337 | 74 | 141 | 2.0 | 4.0 | 0.00 | 0.00 | 0.00 | 10 | 1006.7 |
| 20260501222036 | 74 | 163 | 0.0 | 3.0 | 0.00 | 0.00 | 0.00 | 10 | 1006.7 |
| 20260501221735 | 75 | 154 | 1.0 | 6.0 | 0.00 | 0.00 | 0.00 | 10 | 1006.2 |
| 20260501221436 | 75 | 149 | 1.0 | 6.0 | 0.00 | 0.00 | 0.00 | 10 | 1006.4 |
| 20260501221135 | 75 | 128 | 0.0 | 6.0 | 0.00 | 0.00 | 0.00 | 10 | 1006.5 |
| 20260501220834 | 76 | 121 | 3.0 | 6.0 | 0.00 | 0.00 | 0.00 | 10 | 1006.5 |
| 20260501220536 | 76 | 135 | 0.0 | 3.0 | 0.00 | 0.00 | 0.00 | 10 | 1006.4 |
| 20260501220235 | 76 | 0 | 0.0 | 0.0 | 0.00 | 0.00 | 0.00 | 10 | 1006.4 |
| 20260501215934 | 76 | 181 | 0.0 | 0.0 | 0.00 | 0.00 | 0.00 | 10 | 1006.6 |
| 20260501215635 | 76 | 181 | 0.0 | 0.0 | 0.00 | 0.00 | 0.00 | 10 | 1006.5 |
| 20260501215335 | 76 | 181 | 0.0 | 0.0 | 0.00 | 0.00 | 0.00 | 10 | 1006.5 |
| 20260501215034 | 77 | 20 | 0.0 | 3.0 | 0.00 | 0.00 | 0.00 | 10 | 1006.5 |
| 20260501214736 | 77 | 283 | 0.0 | 3.0 | 0.00 | 0.00 | 0.00 | 10 | 1006.6 |
| 20260501214435 | 77 | 265 | 0.0 | 3.0 | 0.00 | 0.00 | 0.00 | 10 | 1006.5 |
| 20260501214134 | 77 | 293 | 0.0 | 4.0 | 0.00 | 0.00 | 0.00 | 10 | 1006.4 |
| 20260501213835 | 77 | 280 | 0.0 | 4.0 | 0.00 | 0.00 | 0.00 | 10 | 1006.5 |
| 20260501213533 | 77 | 331 | 0.0 | 4.0 | 0.00 | 0.00 | 0.00 | 10 | 1006.4 |
| 20260501213235 | 77 | 85 | 0.0 | 4.0 | 0.00 | 0.00 | 0.00 | 10 | 1006.5 |
| 20260501212934 | 77 | 87 | 0.0 | 5.0 | 0.00 | 0.00 | 0.00 | 10 | 1006.4 |
| 20260501212633 | 77 | 90 | 1.0 | 5.0 | 0.00 | 0.00 | 0.00 | 10 | 1006.5 |
| 20260501212334 | 77 | 131 | 0.0 | 5.0 | 0.00 | 0.00 | 0.00 | 10 | 1006.4 |
| 20260501212034 | 78 | 17 | 3.0 | 5.0 | 0.00 | 0.00 | 0.00 | 10 | 1006.2 |
| 20260501211733 | 78 | 11 | 0.0 | 4.0 | 0.00 | 0.00 | 0.00 | 10 | 1006.2 |
| 20260501211434 | 78 | 21 | 0.0 | 4.0 | 0.00 | 0.00 | 0.00 | 10 | 1006.2 |
| 20260501211133 | 78 | 37 | 2.0 | 4.0 | 0.00 | 0.00 | 0.00 | 10 | 1006.2 |
| 20260501210833 | 78 | 67 | 0.0 | 3.0 | 0.00 | 0.00 | 0.00 | 10 | 1006.2 |
| 20260501210534 | 78 | 270 | 0.0 | 4.0 | 0.00 | 0.00 | 0.00 | 10 | 1006.2 |
| 20260501210233 | 78 | 255 | 1.0 | 4.0 | 0.00 | 0.00 | 0.00 | 10 | 1006.2 |
| 20260501205933 | 78 | 261 | 0.0 | 4.0 | 0.00 | 0.00 | 0.00 | 10 | 1006.2 |
| 20260501205634 | 78 | 259 | 0.0 | 3.0 | 0.00 | 0.00 | 0.00 | 10 | 1006.1 |
| 20260501205333 | 78 | 283 | 0.0 | 4.0 | 0.00 | 0.00 | 0.00 | 10 | 1006.0 |
| 20260501205033 | 78 | 300 | 0.0 | 5.0 | 0.00 | 0.00 | 0.00 | 10 | 1006.1 |
| 20260501204733 | 79 | 327 | 0.0 | 5.0 | 0.00 | 0.00 | 0.00 | 10 | 1006.1 |
| 20260501204432 | 79 | 325 | 1.0 | 5.0 | 0.00 | 0.00 | 0.00 | 10 | 1006.0 |
| 20260501204133 | 79 | 327 | 2.0 | 5.0 | 0.00 | 0.00 | 0.00 | 10 | 1005.9 |
| 20260501203832 | 79 | 310 | 1.0 | 5.0 | 0.00 | 0.00 | 0.00 | 10 | 1006.1 |
| 20260501203531 | 79 | 287 | 2.0 | 5.0 | 0.00 | 0.00 | 0.00 | 10 | 1006.0 |
| 20260501203233 | 79 | 64 | 0.0 | 4.0 | 0.00 | 0.00 | 0.00 | 10 | 1005.9 |
| 20260501202931 | 79 | 80 | 2.0 | 6.0 | 0.00 | 0.00 | 0.00 | 10 | 1005.7 |
| 20260501202631 | 79 | 265 | 2.0 | 6.0 | 0.00 | 0.00 | 0.00 | 10 | 1005.9 |
| 20260501202331 | 79 | 307 | 2.0 | 9.0 | 0.00 | 0.00 | 0.00 | 10 | 1005.9 |
| 20260501202031 | 79 | 322 | 0.0 | 9.0 | 0.00 | 0.00 | 0.00 | 10 | 1006.0 |
| 20260501201732 | 80 | 337 | 1.0 | 9.0 | 0.00 | 0.00 | 0.00 | 10 | 1006.0 |
| 20260501201431 | 80 | 2 | 4.0 | 9.0 | 0.00 | 0.00 | 0.00 | 10 | 1005.9 |
| 20260501201131 | 80 | 348 | 1.0 | 6.0 | 0.00 | 0.00 | 0.00 | 10 | 1006.0 |
| 20260501200830 | 80 | 354 | 2.0 | 6.0 | 0.00 | 0.00 | 0.00 | 10 | 1005.7 |
| 20260501200532 | 80 | 349 | 0.0 | 6.0 | 0.00 | 0.00 | 0.00 | 10 | 1005.9 |
| 20260501200230 | 80 | 329 | 1.0 | 9.0 | 0.00 | 0.00 | 0.00 | 10 | 1006.0 |
| 20260501195930 | 80 | 328 | 1.0 | 9.0 | 0.00 | 0.00 | 0.00 | 10 | 1006.0 |
| 20260501195631 | 80 | 315 | 3.0 | 9.0 | 0.00 | 0.00 | 0.00 | 10 | 1006.0 |
| 20260501195331 | 81 | 305 | 3.0 | 9.0 | 0.00 | 0.00 | 0.00 | 10 | 1005.9 |
| 20260501195030 | 81 | 297 | 1.0 | 8.0 | 0.00 | 0.00 | 0.00 | 10 | 1005.7 |
| 20260501194731 | 81 | 10 | 2.0 | 12.0 | 0.00 | 0.00 | 0.00 | 10 | 1006.0 |
| 20260501194431 | 81 | 5 | 0.0 | 12.0 | 0.00 | 0.00 | 0.00 | 10 | 1005.9 |
| 20260501194130 | 81 | 358 | 3.0 | 12.0 | 0.00 | 0.00 | 0.00 | 10 | 1005.9 |
| 20260501193829 | 81 | 333 | 4.0 | 14.0 | 0.00 | 0.00 | 0.00 | 10 | 1005.7 |
| 20260501193529 | 82 | 318 | 2.0 | 14.0 | 0.00 | 0.00 | 0.00 | 10 | 1005.7 |
| 20260501193230 | 82 | 313 | 3.0 | 14.0 | 0.00 | 0.00 | 0.00 | 10 | 1005.7 |
| 20260501192930 | 82 | 307 | 5.0 | 14.0 | 0.00 | 0.00 | 0.00 | 10 | 1005.6 |
| 20260501192630 | 83 | 297 | 6.0 | 13.0 | 0.00 | 0.00 | 0.00 | 10 | 1005.5 |
| 20260501192329 | 83 | 317 | 3.0 | 19.0 | 0.00 | 0.00 | 0.00 | 10 | 1005.7 |
| 20260501192030 | 83 | 315 | 3.0 | 19.0 | 0.00 | 0.00 | 0.00 | 10 | 1005.7 |
| 20260501191730 | 84 | 299 | 3.0 | 19.0 | 0.00 | 0.00 | 0.00 | 10 | 1005.5 |
| 20260501191430 | 85 | 289 | 5.0 | 9.0 | 0.00 | 0.00 | 0.00 | 10 | 1005.7 |
| 20260501191129 | 85 | 297 | 5.0 | 9.0 | 0.00 | 0.00 | 0.00 | 10 | 1005.6 |
| 20260501190829 | 85 | 287 | 2.0 | 11.0 | 0.00 | 0.00 | 0.00 | 10 | 1005.5 |
| 20260501190528 | 84 | 274 | 3.0 | 13.0 | 0.00 | 0.00 | 0.00 | 10 | 1005.5 |
| 20260501190229 | 84 | 295 | 3.0 | 13.0 | 0.00 | 0.00 | 0.00 | 10 | 1005.6 |
| 20260501185929 | 84 | 298 | 6.0 | 13.0 | 0.00 | 0.00 | 0.00 | 10 | 1005.7 |
| 20260501185628 | 84 | 343 | 6.0 | 12.0 | 0.00 | 0.00 | 0.00 | 10 | 1005.5 |
| 20260501185329 | 85 | 30 | 5.0 | 12.0 | 0.00 | 0.00 | 0.00 | 10 | 1005.5 |
| 20260501185028 | 86 | 79 | 2.0 | 11.0 | 0.00 | 0.00 | 0.00 | 10 | 1005.4 |
| 20260501184727 | 86 | 68 | 3.0 | 11.0 | 0.00 | 0.00 | 0.00 | 10 | 1005.4 |
| 20260501184429 | 86 | 67 | 2.0 | 12.0 | 0.00 | 0.00 | 0.00 | 10 | 1005.4 |
| 20260501184128 | 85 | 326 | 2.0 | 16.0 | 0.00 | 0.00 | 0.00 | 10 | 1005.4 |
| 20260501183827 | 85 | 5 | 2.0 | 16.0 | 0.00 | 0.00 | 0.00 | 10 | 1005.5 |
| 20260501183529 | 85 | 10 | 5.0 | 16.0 | 0.00 | 0.00 | 0.00 | 10 | 1005.5 |
| 20260501183228 | 85 | 58 | 3.0 | 16.0 | 0.00 | 0.00 | 0.00 | 10 | 1005.5 |
| 20260501182927 | 85 | 3 | 2.0 | 12.0 | 0.00 | 0.00 | 0.00 | 10 | 1005.2 |
| 20260501182628 | 85 | 345 | 3.0 | 13.0 | 0.00 | 0.00 | 0.00 | 10 | 1005.5 |
| 20260501182328 | 84 | 336 | 2.0 | 13.0 | 0.00 | 0.00 | 0.00 | 10 | 1005.4 |
| 20260501182026 | 84 | 343 | 6.0 | 13.0 | 0.00 | 0.00 | 0.00 | 10 | 1005.5 |
| 20260501181727 | 84 | 343 | 3.0 | 13.0 | 0.00 | 0.00 | 0.00 | 10 | 1005.6 |
| 20260501181427 | 84 | 357 | 0.0 | 13.0 | 0.00 | 0.00 | 0.00 | 10 | 1005.5 |
| 20260501181127 | 84 | 6 | 6.0 | 13.0 | 0.00 | 0.00 | 0.00 | 10 | 1005.6 |
| 20260501180826 | 84 | 7 | 4.0 | 17.0 | 0.00 | 0.00 | 0.00 | 10 | 1005.6 |
| 20260501180528 | 84 | 8 | 3.0 | 17.0 | 0.00 | 0.00 | 0.00 | 10 | 1005.6 |
| 20260501180227 | 85 | 14 | 6.0 | 17.0 | 0.00 | 0.00 | 0.00 | 10 | 1005.7 |
| 20260501175926 | 85 | 34 | 6.0 | 17.0 | 0.00 | 0.00 | 0.00 | 10 | 1005.7 |
| 20260501175627 | 85 | 17 | 4.0 | 8.0 | 0.00 | 0.00 | 0.00 | 10 | 1005.7 |
| 20260501175327 | 85 | 316 | 3.0 | 13.0 | 0.00 | 0.00 | 0.00 | 10 | 1005.9 |
| 20260501175026 | 85 | 321 | 3.0 | 13.0 | 0.00 | 0.00 | 0.00 | 10 | 1006.0 |
| 20260501174725 | 84 | 332 | 2.0 | 13.0 | 0.00 | 0.00 | 0.00 | 10 | 1006.0 |
| 20260501174426 | 85 | 329 | 6.0 | 12.0 | 0.00 | 0.00 | 0.00 | 10 | 1006.1 |
| 20260501174126 | 85 | 3 | 5.0 | 9.0 | 0.00 | 0.00 | 0.00 | 10 | 1006.2 |
| 20260501173826 | 85 | 74 | 2.0 | 6.0 | 0.00 | 0.00 | 0.00 | 10 | 1006.2 |
| 20260501173525 | 85 | 37 | 1.0 | 9.0 | 0.00 | 0.00 | 0.00 | 10 | 1006.4 |
| 20260501173226 | 84 | 27 | 0.0 | 9.0 | 0.00 | 0.00 | 0.00 | 10 | 1006.2 |
| 20260501172926 | 83 | 33 | 0.0 | 9.0 | 0.00 | 0.00 | 0.00 | 10 | 1006.4 |
| 20260501172625 | 83 | 36 | 4.0 | 9.0 | 0.00 | 0.00 | 0.00 | 10 | 1006.5 |
| 20260501172324 | 83 | 24 | 3.0 | 9.0 | 0.00 | 0.00 | 0.00 | 10 | 1006.6 |
| 20260501172025 | 83 | 10 | 6.0 | 16.0 | 0.00 | 0.00 | 0.00 | 10 | 1006.5 |
| 20260501171725 | 83 | 351 | 2.0 | 16.0 | 0.00 | 0.00 | 0.00 | 10 | 1006.6 |
| 20260501171424 | 82 | 355 | 3.0 | 16.0 | 0.00 | 0.00 | 0.00 | 10 | 1006.6 |
| 20260501171125 | 82 | 352 | 3.0 | 13.0 | 0.00 | 0.00 | 0.00 | 10 | 1006.7 |
| 20260501170824 | 82 | 356 | 7.0 | 13.0 | 0.00 | 0.00 | 0.00 | 10 | 1006.7 |
| 20260501170525 | 83 | 77 | 5.0 | 12.0 | 0.00 | 0.00 | 0.00 | 10 | 1006.9 |
| 20260501170224 | 82 | 84 | 3.0 | 12.0 | 0.00 | 0.00 | 0.00 | 10 | 1006.9 |
| 20260501165925 | 83 | 351 | 3.0 | 12.0 | 0.00 | 0.00 | 0.00 | 10 | 1006.9 |
| 20260501165624 | 84 | 336 | 2.0 | 12.0 | 0.00 | 0.00 | 0.00 | 10 | 1007.0 |
| 20260501165325 | 84 | 349 | 3.0 | 12.0 | 0.00 | 0.00 | 0.00 | 10 | 1007.2 |
| 20260501165024 | 85 | 18 | 5.0 | 12.0 | 0.00 | 0.00 | 0.00 | 10 | 1007.4 |
| 20260501164723 | 84 | 49 | 6.0 | 12.0 | 0.00 | 0.00 | 0.00 | 10 | 1007.5 |
| 20260501164424 | 82 | 55 | 0.0 | 12.0 | 0.00 | 0.00 | 0.00 | 10 | 1007.6 |
| 20260501164125 | 82 | 55 | 4.0 | 14.0 | 0.00 | 0.00 | 0.00 | 10 | 1007.6 |
| 20260501163824 | 82 | 51 | 3.0 | 14.0 | 0.00 | 0.00 | 0.00 | 10 | 1007.5 |
| 20260501163523 | 82 | 298 | 4.0 | 14.0 | 0.00 | 0.00 | 0.00 | 10 | 1007.6 |
| 20260501163225 | 82 | 297 | 3.0 | 14.0 | 0.00 | 0.00 | 0.00 | 10 | 1007.7 |
| 20260501162923 | 82 | 309 | 3.0 | 12.0 | 0.00 | 0.00 | 0.00 | 10 | 1007.7 |
| 20260501162624 | 83 | 297 | 8.0 | 12.0 | 0.00 | 0.00 | 0.00 | 10 | 1007.9 |
| 20260501162323 | 83 | 305 | 4.0 | 13.0 | 0.00 | 0.00 | 0.00 | 10 | 1008.0 |
| 20260501162023 | 82 | 318 | 4.0 | 16.0 | 0.00 | 0.00 | 0.00 | 10 | 1008.1 |
| 20260501161724 | 81 | 332 | 0.0 | 16.0 | 0.00 | 0.00 | 0.00 | 10 | 1008.2 |
| 20260501161423 | 81 | 353 | 3.0 | 16.0 | 0.00 | 0.00 | 0.00 | 10 | 1008.2 |
| 20260501161124 | 81 | 356 | 9.0 | 16.0 | 0.00 | 0.00 | 0.00 | 10 | 1008.2 |
| 20260501160823 | 81 | 19 | 2.0 | 13.0 | 0.00 | 0.00 | 0.00 | 10 | 1008.2 |
| 20260501160547 | 81 | 350 | 4.0 | 12.0 | 0.00 | 0.00 | 0.00 | 10 | 1008.4 |
| 20260501160246 | 81 | 14 | 5.0 | 9.0 | 0.00 | 0.00 | 0.00 | 10 | 1008.4 |
| 20260501155947 | 81 | 14 | 3.0 | 9.0 | 0.00 | 0.00 | 0.00 | 10 | 1008.4 |
| 20260501155646 | 81 | 13 | 4.0 | 10.0 | 0.00 | 0.00 | 0.00 | 10 | 1008.6 |
| 20260501155346 | 81 | 1 | 3.0 | 10.0 | 0.00 | 0.00 | 0.00 | 10 | 1008.5 |
| 20260501155046 | 81 | 343 | 4.0 | 10.0 | 0.00 | 0.00 | 0.00 | 10 | 1008.7 |
| 20260501154746 | 81 | 345 | 3.0 | 11.0 | 0.00 | 0.00 | 0.00 | 10 | 1008.7 |
| 20260501154447 | 80 | 336 | 1.0 | 11.0 | 0.00 | 0.00 | 0.00 | 10 | 1008.7 |
| 20260501154145 | 80 | 336 | 5.0 | 11.0 | 0.00 | 0.00 | 0.00 | 10 | 1009.0 |
| 20260501153845 | 80 | 334 | 4.0 | 10.0 | 0.00 | 0.00 | 0.00 | 10 | 1009.0 |
| 20260501153546 | 80 | 327 | 3.0 | 10.0 | 0.00 | 0.00 | 0.00 | 10 | 1009.0 |
| 20260501153245 | 79 | 25 | 1.0 | 10.0 | 0.00 | 0.00 | 0.00 | 10 | 1009.1 |
| 20260501152946 | 79 | 48 | 4.0 | 13.0 | 0.00 | 0.00 | 0.00 | 10 | 1009.2 |
| 20260501152645 | 79 | 77 | 0.0 | 13.0 | 0.00 | 0.00 | 0.00 | 10 | 1009.2 |
| 20260501152345 | 79 | 8 | 6.0 | 13.0 | 0.00 | 0.00 | 0.00 | 10 | 1009.2 |
| 20260501152045 | 78 | 356 | 4.0 | 13.0 | 0.00 | 0.00 | 0.00 | 10 | 1009.4 |
| 20260501151745 | 79 | 23 | 6.0 | 12.0 | 0.00 | 0.00 | 0.00 | 10 | 1009.5 |
| 20260501151445 | 79 | 30 | 3.0 | 11.0 | 0.00 | 0.00 | 0.00 | 10 | 1009.6 |
| 20260501151144 | 78 | 19 | 6.0 | 12.0 | 0.00 | 0.00 | 0.00 | 10 | 1009.7 |
| 20260501150845 | 78 | 24 | 3.0 | 12.0 | 0.00 | 0.00 | 0.00 | 10 | 1009.7 |
| 20260501150544 | 77 | 29 | 6.0 | 12.0 | 0.00 | 0.00 | 0.00 | 10 | 1009.6 |
| 20260501150246 | 77 | 39 | 2.0 | 11.0 | 0.00 | 0.00 | 0.00 | 10 | 1009.6 |
| 20260501145945 | 77 | 21 | 4.0 | 12.0 | 0.00 | 0.00 | 0.00 | 10 | 1009.6 |
| 20260501145644 | 77 | 21 | 7.0 | 12.0 | 0.00 | 0.00 | 0.00 | 10 | 1009.7 |
| 20260501145344 | 77 | 14 | 6.0 | 13.0 | 0.00 | 0.00 | 0.00 | 10 | 1009.9 |
| 20260501145045 | 77 | 24 | 6.0 | 13.0 | 0.00 | 0.00 | 0.00 | 10 | 1009.9 |
| 20260501144744 | 77 | 24 | 6.0 | 13.0 | 0.00 | 0.00 | 0.00 | 10 | 1010.1 |
| 20260501144443 | 78 | 12 | 6.0 | 13.0 | 0.00 | 0.00 | 0.00 | 10 | 1010.0 |
| 20260501144144 | 78 | 349 | 2.0 | 10.0 | 0.00 | 0.00 | 0.00 | 10 | 1009.7 |
| 20260501143844 | 78 | 353 | 4.0 | 10.0 | 0.00 | 0.00 | 0.00 | 10 | 1009.9 |
| 20260501143543 | 78 | 2 | 3.0 | 10.0 | 0.00 | 0.00 | 0.00 | 10 | 1009.9 |
| 20260501143243 | 78 | 13 | 3.0 | 9.0 | 0.00 | 0.00 | 0.00 | 10 | 1010.0 |
| 20260501142944 | 78 | 23 | 3.0 | 11.0 | 0.00 | 0.00 | 0.00 | 10 | 1010.2 |
| 20260501142643 | 77 | 24 | 3.0 | 11.0 | 0.00 | 0.00 | 0.00 | 10 | 1010.2 |
| 20260501142344 | 77 | 17 | 3.0 | 11.0 | 0.00 | 0.00 | 0.00 | 10 | 1010.2 |
| 20260501142044 | 77 | 9 | 4.0 | 11.0 | 0.00 | 0.00 | 0.00 | 10 | 1010.2 |
| 20260501141743 | 77 | 342 | 3.0 | 10.0 | 0.00 | 0.00 | 0.00 | 10 | 1010.2 |
| 20260501141442 | 76 | 343 | 3.0 | 9.0 | 0.00 | 0.00 | 0.00 | 10 | 1010.2 |
| 20260501141142 | 76 | 3 | 2.0 | 12.0 | 0.00 | 0.00 | 0.00 | 10 | 1010.5 |
| 20260501140844 | 75 | 12 | 3.0 | 13.0 | 0.00 | 0.00 | 0.00 | 10 | 1010.6 |
| 20260501140543 | 75 | 18 | 3.0 | 14.0 | 0.00 | 0.00 | 0.00 | 10 | 1010.7 |
| 20260501140242 | 75 | 11 | 2.0 | 14.0 | 0.00 | 0.00 | 0.00 | 10 | 1010.7 |
| 20260501135943 | 75 | 21 | 8.0 | 14.0 | 0.00 | 0.00 | 0.00 | 10 | 1010.7 |
| 20260501135642 | 76 | 46 | 7.0 | 14.0 | 0.00 | 0.00 | 0.00 | 10 | 1010.7 |